Flag for Germany Weather past 2 weeks in Cologne, North Rhine-Westphalia, Germany

Now
64 °F

Scattered clouds.


Feels Like: 64 °F
Forecast: 51 / 68 °F
Wind: 5 mph from North

Location: Koeln / Bonn

Current Time: Sep 1, 2014 at 3:44:21 PM

Latest Report: Sep 1, 2014 at 3:20 PM


Visibility: N/A

Pressure: 30.12 "Hg

Humidity: 68%

Dew point: 54 °F

Location of CologneLocation

Historic Weather in Cologne — Graph

°F

Cologne temperature yesterday

Maximum temperature yesterday: 61 °F (at 10:50 AM)
Minimum temperature yesterday: 54 °F (at 9:50 PM)
Average temperature yesterday: 58 °F

Past Weeks' High & Low Weather Summary

 TemperatureHumidityPressure
High73 °F (Aug 28, 1:20 PM)100% (Aug 20, 7:20 AM)30.15 "Hg (Aug 20, 7:20 AM)
Low45 °F (Aug 20, 5:20 AM)40% (Aug 18, 2:20 PM)29.62 "Hg (Aug 26, 4:50 AM)
Average58 °F80%29.94 "Hg
* Reported Aug 17 2:20 PM — Sep 1 2:20 PM, Cologne, Weather by CustomWeather, © 2014

Note: Actual official high and low records may vary slightly from our data, if they occured in-between our weather recording intervals... More about our weather records

Advertising

Cologne weather history for previous 24 hours

 ConditionsComfort  
Time TempWeatherWind HumidityBarometerVisibility
2:20 PM
Sep 1
63 °FBroken clouds.7 mph73%30.12 "HgN/A
1:50 PM64 °FScattered clouds.3 mph68%30.12 "HgN/A
1:20 PM63 °FPartly sunny.3 mph73%30.15 "HgN/A
12:50 PM63 °FPartly sunny.5 mph73%30.15 "HgN/A
12:20 PM61 °FScattered clouds.5 mph83%30.15 "HgN/A
11:50 AM59 °FScattered clouds.3 mph82%30.15 "HgN/A
11:20 AM59 °FPartly sunny.5 mph82%30.15 "HgN/A
10:50 AM57 °FPartly sunny.7 mph88%30.15 "HgN/A
10:20 AM57 °FBroken clouds.6 mph88%30.15 "Hg4 mi
9:50 AM57 °FFog.3 mph88%30.12 "Hg3 mi
9:20 AM55 °FFog.5 mph94%30.12 "Hg2 mi
8:50 AM55 °FFog.6 mph94%30.12 "Hg2 mi
8:20 AM55 °FFog.5 mph94%30.12 "Hg2 mi
7:50 AM54 °FFog.7 mph100%30.12 "Hg2 mi
7:20 AM54 °FFog.5 mph100%30.12 "Hg1 mi
6:50 AM54 °FFog.2 mph100%30.12 "Hg1 mi
6:20 AM54 °FFog.2 mph94%30.12 "Hg1 mi
5:50 AM54 °FFog.3 mph94%30.09 "Hg2 mi
5:20 AM54 °FFog.3 mph94%30.09 "Hg2 mi
4:50 AM54 °FFog.3 mph94%30.09 "Hg2 mi
4:20 AM54 °FFog.3 mph94%30.09 "Hg3 mi
3:50 AM54 °FFog.3 mph94%30.09 "Hg3 mi
3:20 AM54 °FFog.2 mph94%30.09 "Hg3 mi
2:50 AM54 °FFog.1 mph94%30.09 "Hg3 mi
2:20 AM52 °FFog.1 mph100%30.07 "Hg3 mi
1:50 AM52 °FFog.3 mph94%30.07 "Hg3 mi
1:20 AM52 °FFog.2 mph94%30.07 "Hg3 mi
12:50 AM52 °FCool.1 mph94%30.07 "Hg3 mi
12:20 AM52 °FCool.1 mph94%30.07 "Hg2 mi
11:50 PM
Aug 31
54 °FCool.2 mph94%30.04 "HgN/A
11:20 PM54 °FFog.1 mph94%30.04 "HgN/A
10:50 PM54 °FFog.1 mph94%30.04 "HgN/A
10:20 PM54 °FFog.3 mph94%30.04 "HgN/A
9:50 PM54 °FPartly cloudy.2 mph94%30.04 "HgN/A
9:20 PM55 °FPartly cloudy.1 mph94%30.01 "HgN/A
8:50 PM55 °FSprinkles. Broken clouds.5 mph94%30.01 "HgN/A
8:20 PM55 °FSprinkles. Fog.3 mph88%29.98 "HgN/A
7:50 PM57 °FBroken clouds.6 mph88%29.98 "HgN/A
7:20 PM57 °FBroken clouds.6 mph94%29.98 "HgN/A
6:50 PM57 °FSprinkles. Partly sunny.2 mph88%29.98 "HgN/A
6:20 PM57 °FSprinkles. Partly sunny.6 mph88%29.98 "HgN/A
5:50 PM59 °FThundershowers. Partly sunny.6 mph82%29.98 "HgN/A
5:20 PM59 °FThunderstorms. Broken clouds.6 mph82%29.98 "HgN/A
4:50 PM59 °FPartly sunny.7 mph82%29.95 "HgN/A
4:20 PM59 °FSprinkles. Partly sunny.8 mph88%29.95 "HgN/A
3:50 PM61 °FScattered showers. Scattered clouds.6 mph77%29.95 "HgN/A
3:20 PM61 °FScattered clouds.5 mph77%29.95 "HgN/A
Weather by CustomWeather, © 2014

See weather overviewHow to use our weather pages